IBE40M LEBL-DAAG

Flight info

Callsign IBE40M
Flight time 0h 52m
Altitude 33000
Route LARPA N859 GENIO DCT BUYAH UA27 ALR
Aircraft A320/M-SDE3FGHIRWY/LB1

Departure

Time 2026-05-08 22:40
Airport Josep Tarradellas Barcelona-El Prat Airport (LEBL)

Arrival

Time 2026-05-08 23:32
Airport Houari Boumediene Airport (DAAG)
Time Latitude Longitude Altitude Speed Heading
2026-05-08 22:11 41.28801 2.07738 22 ft 0 kts 253°
2026-05-08 22:29 41.28802 2.07739 19 ft 2 kts 253°
2026-05-08 22:30 41.28809 2.07770 20 ft 4 kts 251°
2026-05-08 22:30 41.28817 2.07805 21 ft 4 kts 256°
2026-05-08 22:30 41.28823 2.07839 19 ft 4 kts 254°
2026-05-08 22:30 41.28826 2.07860 18 ft 4 kts 171°
2026-05-08 22:31 41.28827 2.07860 18 ft 0 kts 155°
2026-05-08 22:34 41.28822 2.07863 18 ft 5 kts 155°
2026-05-08 22:35 41.28748 2.07909 18 ft 14 kts 155°
2026-05-08 22:35 41.28650 2.07967 15 ft 17 kts 156°
2026-05-08 22:35 41.28577 2.07901 17 ft 13 kts 248°
2026-05-08 22:35 41.28546 2.07793 16 ft 12 kts 249°
2026-05-08 22:36 41.28517 2.07698 16 ft 10 kts 245°
2026-05-08 22:36 41.28476 2.07583 17 ft 20 kts 244°
2026-05-08 22:36 41.28400 2.07380 16 ft 24 kts 245°
2026-05-08 22:36 41.28322 2.07341 16 ft 0 kts 161°
2026-05-08 22:38 41.28319 2.07343 16 ft 4 kts 161°
2026-05-08 22:38 41.28250 2.07378 17 ft 14 kts 158°
2026-05-08 22:38 41.28242 2.07471 20 ft 11 kts 69°
2026-05-08 22:39 41.28270 2.07567 21 ft 12 kts 69°
2026-05-08 22:39 41.28314 2.07687 19 ft 24 kts 62°
2026-05-08 22:39 41.28482 2.08186 21 ft 92 kts 65°
2026-05-08 22:39 41.28821 2.09189 19 ft 146 kts 65°
2026-05-08 22:40 41.29261 2.10497 476 ft 155 kts 68°
2026-05-08 22:40 41.29428 2.11432 956 ft 154 kts 91°
2026-05-08 22:40 41.29093 2.13332 1688 ft 172 kts 102°
2026-05-08 22:40 41.28927 2.14984 2133 ft 188 kts 95°
2026-05-08 22:41 41.28803 2.16795 2506 ft 208 kts 97°
2026-05-08 22:41 41.28652 2.18766 3232 ft 210 kts 97°
2026-05-08 22:41 41.28555 2.20050 3932 ft 205 kts 97°
2026-05-08 22:41 41.28395 2.21976 4562 ft 215 kts 98°
2026-05-08 22:42 41.28014 2.23938 4970 ft 233 kts 122°
2026-05-08 22:42 41.26798 2.25489 5391 ft 251 kts 154°
2026-05-08 22:42 41.25052 2.25961 5912 ft 264 kts 184°
2026-05-08 22:42 41.23234 2.25417 6456 ft 275 kts 187°
2026-05-08 22:43 41.21329 2.25468 7343 ft 274 kts 172°
2026-05-08 22:43 41.19451 2.25927 8244 ft 276 kts 169°
2026-05-08 22:43 41.17565 2.26474 9077 ft 279 kts 169°
2026-05-08 22:43 41.15641 2.26987 9904 ft 283 kts 171°
2026-05-08 22:44 41.13697 2.27430 10443 ft 296 kts 173°
2026-05-08 22:44 41.11548 2.27842 10673 ft 320 kts 175°
2026-05-08 22:44 41.09267 2.28213 10948 ft 339 kts 175°
2026-05-08 22:44 41.06891 2.28562 11541 ft 346 kts 176°
2026-05-08 22:45 41.04483 2.28901 12225 ft 351 kts 177°
2026-05-08 22:45 41.02037 2.29239 12904 ft 355 kts 178°
2026-05-08 22:45 40.99601 2.29574 13589 ft 359 kts 178°
2026-05-08 22:45 40.97106 2.29923 14226 ft 362 kts 178°
2026-05-08 22:46 40.94556 2.30291 14862 ft 366 kts 178°
2026-05-08 22:46 40.92016 2.30662 15490 ft 368 kts 178°
2026-05-08 22:46 40.89494 2.31026 16098 ft 371 kts 179°
2026-05-08 22:46 40.86914 2.31392 16697 ft 374 kts 179°
2026-05-08 22:47 40.84320 2.31763 17308 ft 377 kts 179°
2026-05-08 22:47 40.81707 2.32137 17901 ft 379 kts 179°
2026-05-08 22:47 40.79069 2.32515 18466 ft 382 kts 179°
2026-05-08 22:47 40.76416 2.32897 18974 ft 385 kts 179°
2026-05-08 22:48 40.73745 2.33282 19485 ft 387 kts 179°
2026-05-08 22:48 40.71060 2.33667 19989 ft 389 kts 179°
2026-05-08 22:48 40.68360 2.34048 20510 ft 391 kts 179°
2026-05-08 22:48 40.65645 2.34432 21000 ft 393 kts 179°
2026-05-08 22:49 40.62916 2.34855 21491 ft 398 kts 176°
2026-05-08 22:49 40.57470 2.36674 22434 ft 406 kts 171°
2026-05-08 22:49 40.54731 2.37640 22902 ft 408 kts 171°
2026-05-08 22:50 40.51973 2.38603 23363 ft 411 kts 171°
2026-05-08 22:50 40.49206 2.39563 23778 ft 413 kts 172°
2026-05-08 22:50 40.46414 2.40533 24142 ft 415 kts 172°
2026-05-08 22:50 40.43609 2.41509 24491 ft 418 kts 172°
2026-05-08 22:51 40.40792 2.42489 24843 ft 420 kts 172°
2026-05-08 22:51 40.37954 2.43475 25188 ft 422 kts 172°
2026-05-08 22:51 40.35104 2.44464 25533 ft 425 kts 172°
2026-05-08 22:51 40.32239 2.45455 25876 ft 427 kts 172°
2026-05-08 22:52 40.29396 2.46440 26200 ft 429 kts 172°
2026-05-08 22:52 40.26463 2.47453 26542 ft 432 kts 172°
2026-05-08 22:52 40.23590 2.48444 26872 ft 434 kts 172°
2026-05-08 22:52 40.20662 2.49455 27194 ft 436 kts 173°
2026-05-08 22:53 40.17721 2.50470 27525 ft 437 kts 173°
2026-05-08 22:53 40.14774 2.51489 27846 ft 440 kts 173°
2026-05-08 22:53 40.11808 2.52516 28152 ft 442 kts 173°
2026-05-08 22:53 40.08831 2.53548 28449 ft 444 kts 173°
2026-05-08 22:54 40.05848 2.54578 28739 ft 446 kts 173°
2026-05-08 22:54 40.02840 2.55615 29028 ft 448 kts 173°
2026-05-08 22:54 39.99824 2.56648 29292 ft 449 kts 173°
2026-05-08 22:54 39.96794 2.57682 29596 ft 451 kts 173°
2026-05-08 22:55 39.93757 2.58721 29936 ft 451 kts 173°
2026-05-08 22:55 39.90724 2.59766 30315 ft 450 kts 174°
2026-05-08 22:55 39.87699 2.60810 30661 ft 449 kts 174°
2026-05-08 22:55 39.84683 2.61844 31023 ft 447 kts 174°
2026-05-08 22:56 39.81670 2.62876 31368 ft 446 kts 174°
2026-05-08 22:56 39.78673 2.63899 31729 ft 444 kts 174°
2026-05-08 22:56 39.75691 2.64916 32084 ft 442 kts 175°
2026-05-08 22:56 39.72724 2.65929 32500 ft 440 kts 175°
2026-05-08 22:57 39.69772 2.66938 32864 ft 437 kts 175°
2026-05-08 22:57 39.66823 2.67944 32998 ft 438 kts 175°
2026-05-08 22:57 39.60912 2.69941 33030 ft 439 kts 175°
2026-05-08 22:58 39.55003 2.71937 33029 ft 439 kts 175°
2026-05-08 22:58 39.49087 2.73942 33031 ft 439 kts 175°
2026-05-08 22:59 39.43179 2.75946 33032 ft 439 kts 175°
2026-05-08 22:59 39.37225 2.77980 33050 ft 448 kts 175°
2026-05-08 23:00 39.31179 2.80076 33005 ft 451 kts 174°
2026-05-08 23:00 39.25107 2.82192 33039 ft 452 kts 174°
2026-05-08 23:01 39.19020 2.84300 33052 ft 452 kts 174°
2026-05-08 23:01 39.12944 2.86386 33036 ft 452 kts 174°
2026-05-08 23:02 39.06869 2.88468 33013 ft 452 kts 174°
2026-05-08 23:02 39.00787 2.90556 33013 ft 452 kts 174°
2026-05-08 23:03 38.94709 2.92650 33012 ft 454 kts 174°
2026-05-08 23:03 38.88614 2.94731 33030 ft 458 kts 174°
2026-05-08 23:04 38.82455 2.96830 33112 ft 458 kts 174°
2026-05-08 23:04 38.79389 2.97879 33448 ft 456 kts 174°
2026-05-08 23:04 38.76280 2.98939 33773 ft 455 kts 174°
2026-05-08 23:05 38.73257 2.99969 34086 ft 454 kts 174°
2026-05-08 23:05 38.70206 3.01007 34341 ft 453 kts 174°
2026-05-08 23:05 38.67166 3.02039 34606 ft 452 kts 175°
2026-05-08 23:05 38.64123 3.03068 34873 ft 451 kts 175°
2026-05-08 23:06 38.61087 3.04093 34977 ft 451 kts 175°
2026-05-08 23:06 38.58051 3.05117 35021 ft 450 kts 175°
2026-05-08 23:06 38.51986 3.07159 35025 ft 452 kts 175°
2026-05-08 23:07 38.45923 3.09206 35022 ft 448 kts 175°
2026-05-08 23:07 38.39910 3.11235 35015 ft 446 kts 175°
2026-05-08 23:08 38.33903 3.13258 35016 ft 446 kts 175°
2026-05-08 23:08 38.27894 3.15199 35014 ft 444 kts 176°
2026-05-08 23:09 38.21883 3.16922 35034 ft 441 kts 177°
2026-05-08 23:09 38.18899 3.17508 35042 ft 428 kts 186°
2026-05-08 23:09 38.15941 3.17650 35045 ft 423 kts 188°
2026-05-08 23:10 38.10065 3.17757 34574 ft 423 kts 188°
2026-05-08 23:10 38.07110 3.17782 33668 ft 427 kts 188°
2026-05-08 23:10 38.04127 3.17783 32684 ft 430 kts 188°
2026-05-08 23:11 38.01122 3.17787 31756 ft 434 kts 187°
2026-05-08 23:11 37.98086 3.17870 30836 ft 437 kts 186°
2026-05-08 23:11 37.95041 3.17945 29888 ft 440 kts 186°
2026-05-08 23:11 37.91973 3.18029 28778 ft 443 kts 185°
2026-05-08 23:12 37.88878 3.18111 27634 ft 445 kts 185°
2026-05-08 23:12 37.85775 3.18155 26511 ft 448 kts 185°
2026-05-08 23:12 37.82651 3.18156 25364 ft 450 kts 185°
2026-05-08 23:12 37.79505 3.18144 24238 ft 454 kts 183°
2026-05-08 23:13 37.76356 3.18261 23464 ft 449 kts 182°
2026-05-08 23:13 37.73255 3.18373 22561 ft 444 kts 182°
2026-05-08 23:13 37.70180 3.18473 21708 ft 440 kts 182°
2026-05-08 23:13 37.67142 3.18559 20882 ft 436 kts 182°
2026-05-08 23:14 37.64125 3.18634 20110 ft 432 kts 182°
2026-05-08 23:14 37.61133 3.18695 19364 ft 428 kts 182°
2026-05-08 23:14 37.58167 3.18745 18642 ft 425 kts 182°
2026-05-08 23:14 37.55222 3.18784 17887 ft 421 kts 182°
2026-05-08 23:15 37.52367 3.18821 16683 ft 410 kts 182°
2026-05-08 23:15 37.49548 3.18867 15437 ft 403 kts 182°
2026-05-08 23:15 37.46756 3.18920 14419 ft 401 kts 182°
2026-05-08 23:15 37.43985 3.18979 13834 ft 395 kts 182°
2026-05-08 23:16 37.41261 3.19043 13192 ft 389 kts 182°
2026-05-08 23:16 37.38575 3.19110 12520 ft 383 kts 182°
2026-05-08 23:16 37.35924 3.19172 11992 ft 372 kts 182°
2026-05-08 23:16 37.33445 3.19237 11789 ft 341 kts 182°
2026-05-08 23:17 37.31132 3.19312 11668 ft 325 kts 182°
2026-05-08 23:17 37.28920 3.19393 11542 ft 311 kts 182°
2026-05-08 23:17 37.26797 3.19478 11411 ft 299 kts 182°
2026-05-08 23:17 37.24755 3.19564 11288 ft 288 kts 182°
2026-05-08 23:18 37.22788 3.19652 11167 ft 278 kts 182°
2026-05-08 23:18 37.20887 3.19741 10774 ft 270 kts 182°
2026-05-08 23:18 37.19018 3.19828 10186 ft 267 kts 181°
2026-05-08 23:18 37.17162 3.19890 9679 ft 268 kts 182°
2026-05-08 23:19 37.15295 3.19933 9312 ft 266 kts 182°
2026-05-08 23:19 37.13443 3.19964 8929 ft 266 kts 181°
2026-05-08 23:19 37.11596 3.20043 8533 ft 266 kts 180°
2026-05-08 23:19 37.09750 3.20129 8144 ft 265 kts 180°
2026-05-08 23:20 37.07905 3.20206 7760 ft 264 kts 180°
2026-05-08 23:20 37.06078 3.20270 7397 ft 262 kts 180°
2026-05-08 23:20 37.04279 3.20322 6985 ft 262 kts 179°
2026-05-08 23:20 37.02431 3.20417 6618 ft 261 kts 178°
2026-05-08 23:21 37.00650 3.20519 6242 ft 259 kts 178°
2026-05-08 23:21 36.98850 3.20625 5778 ft 261 kts 177°
2026-05-08 23:21 36.97026 3.20732 5314 ft 263 kts 177°
2026-05-08 23:21 36.95197 3.20842 4946 ft 261 kts 176°
2026-05-08 23:22 36.93392 3.20950 4551 ft 260 kts 176°
2026-05-08 23:22 36.91590 3.21059 4137 ft 259 kts 175°
2026-05-08 23:22 36.89790 3.21168 3714 ft 259 kts 175°
2026-05-08 23:22 36.87988 3.21276 3279 ft 260 kts 175°
2026-05-08 23:23 36.86767 3.21350 2979 ft 260 kts 175°
2026-05-08 23:23 36.84957 3.21458 2550 ft 260 kts 175°
2026-05-08 23:23 36.83147 3.21565 2293 ft 260 kts 175°
2026-05-08 23:23 36.81361 3.21670 2281 ft 250 kts 175°
2026-05-08 23:24 36.79685 3.21766 2286 ft 233 kts 174°
2026-05-08 23:24 36.78123 3.21832 2278 ft 217 kts 177°
2026-05-08 23:24 36.76679 3.21813 2274 ft 204 kts 177°
2026-05-08 23:24 36.75237 3.21803 2282 ft 209 kts 177°
2026-05-08 23:25 36.73792 3.21794 2280 ft 205 kts 177°
2026-05-08 23:25 36.72379 3.21785 2277 ft 202 kts 177°
2026-05-08 23:25 36.70971 3.21776 2278 ft 202 kts 177°
2026-05-08 23:25 36.69590 3.21547 2274 ft 201 kts 204°
2026-05-08 23:26 36.68504 3.20461 2293 ft 203 kts 228°
2026-05-08 23:26 36.67625 3.19105 2285 ft 204 kts 232°
2026-05-08 23:26 36.66782 3.17716 2289 ft 199 kts 232°
2026-05-08 23:26 36.65955 3.16337 2274 ft 198 kts 234°
2026-05-08 23:27 36.65461 3.14763 2284 ft 198 kts 267°
2026-05-08 23:27 36.65525 3.13050 2310 ft 198 kts 276°
2026-05-08 23:27 36.65700 3.11356 2291 ft 197 kts 277°
2026-05-08 23:27 36.65515 3.09695 2276 ft 197 kts 241°
2026-05-08 23:28 36.64551 3.08536 2276 ft 193 kts 202°
2026-05-08 23:28 36.63313 3.08412 2270 ft 172 kts 160°
2026-05-08 23:28 36.62469 3.09277 2267 ft 153 kts 113°
2026-05-08 23:28 36.62443 3.10536 2271 ft 148 kts 68°
2026-05-08 23:29 36.62945 3.11642 2271 ft 147 kts 56°
2026-05-08 23:29 36.63551 3.12676 2068 ft 146 kts 53°
2026-05-08 23:29 36.64189 3.13665 1859 ft 146 kts 51°
2026-05-08 23:29 36.64844 3.14620 1659 ft 145 kts 49°
2026-05-08 23:30 36.65488 3.15591 1432 ft 145 kts 53°
2026-05-08 23:30 36.66081 3.16613 1204 ft 146 kts 55°
2026-05-08 23:30 36.66695 3.17620 983 ft 146 kts 53°
2026-05-08 23:30 36.67307 3.18623 743 ft 145 kts 54°
2026-05-08 23:31 36.67910 3.19619 553 ft 142 kts 54°
2026-05-08 23:31 36.68507 3.20588 400 ft 140 kts 52°
2026-05-08 23:31 36.69094 3.21549 219 ft 138 kts 52°
2026-05-08 23:31 36.69671 3.22486 88 ft 129 kts 52°
2026-05-08 23:32 36.70119 3.23228 83 ft 83 kts 53°
2026-05-08 23:32 36.70386 3.23659 71 ft 53 kts 52°
2026-05-08 23:32 36.70596 3.24001 81 ft 46 kts 53°
2026-05-08 23:32 36.70731 3.24149 84 ft 20 kts 343°
2026-05-08 23:33 36.70853 3.24045 69 ft 6 kts 321°
2026-05-08 23:33 36.70854 3.24044 69 ft 0 kts 321°
2026-05-08 23:34 36.69700 3.20111 70 ft 0 kts 91°